Weather History for Caslav, Czech Republic

Change the Weather History Date:

Sunday, March 4, 2012

  Actual Average Record
Temperature  
Mean Temperature 38 °F -  
Max Temperature 46 °F - - ()
Min Temperature 30 °F - - ()
Degree Days  
Heating Degree Days 27    
Moisture  
Dew Point 24 °F    
Average Humidity 60    
Maximum Humidity 87    
Minimum Humidity 40    
Precipitation  
Precipitation 0.00 in - - ()
Sea Level Pressure  
Sea Level Pressure 30.22 in    
Wind  
Wind Speed 3 mph ()    
Max Wind Speed 8 mph    
Max Gust Speed -    
T = Trace of Precipitation, MM = Missing Value Source: Averaged Metar Reports

Daily Weather History Graph

Daily Weather History Graph

Search for Another Location

Airport:

Trip Planner

Search our weather history database for the weather conditions in past years. The results will help you decide how hot, cold, wet, or windy it might be!

Date:

Astronomy

Mar. 04, 2012 Rise Set
Actual Time 6:34 AM CET 5:46 PM CET
Civil Twilight 6:02 AM CET 6:18 PM CET
Nautical Twilight 5:25 AM CET 6:55 PM CET
Astronomical Twilight 4:47 AM CET 7:33 PM CET
Moon 1:19 PM CET (3/4) 4:04 AM CET (3/4)
Length of Visible Light 12h 15m
Length of Day
11h 11m
Waxing Gibbous, 81% of the Moon is Illuminated
Mar 4
Waxing Gibbous
Mar 8
Full
Mar 15
Last Quarter
Mar 22
New
Mar 30
First Quarter

Hourly Weather History & Observations

Time (CET) Temp. Windchill Dew Point Humidity Pressure Visibility Wind Dir Wind Speed Gust Speed Precip Events Conditions
12:00 AM 32.0 °F 27.5 °F 28.4 °F 87% 30.30 in - SSE 4.6 mph - N/A   Clear
1:00 AM 32.0 °F - 26.6 °F 80% 30.30 in - ESE 2.3 mph - N/A   Clear
2:00 AM 32.0 °F - 26.6 °F 80% 30.30 in - ESE 2.3 mph - N/A   Clear
3:00 AM 32.0 °F - 24.8 °F 75% 30.27 in - Variable 2.3 mph - N/A   Clear
4:00 AM 30.2 °F - 24.8 °F 80% 30.27 in - Calm Calm - N/A   Clear
5:00 AM 33.8 °F - 24.8 °F 70% 30.27 in - Calm Calm - N/A   Clear
6:00 AM 33.8 °F - 24.8 °F 70% 30.27 in - Variable 2.3 mph - N/A   Clear
7:00 AM 32.0 °F - 26.6 °F 80% 30.27 in - Calm Calm - N/A   Clear
8:00 AM 33.8 °F 30.8 °F 24.8 °F 70% 30.27 in - ESE 3.5 mph - N/A   Clear
9:00 AM 35.6 °F 30.7 °F 24.8 °F 65% 30.27 in - ESE 5.8 mph - N/A   Clear
10:00 AM 39.2 °F 35.0 °F 24.8 °F 56% 30.27 in - ESE 5.8 mph - N/A   Clear
11:00 AM 41.0 °F 37.1 °F 24.8 °F 53% 30.24 in - ESE 5.8 mph - N/A   Clear
12:00 PM 42.8 °F 38.6 °F 21.2 °F 42% 30.24 in - ESE 6.9 mph - N/A   Clear
1:00 PM 44.6 °F 41.4 °F 23.0 °F 43% 30.21 in - East 5.8 mph - N/A   Clear
2:00 PM 44.6 °F - 24.8 °F 46% 30.21 in - Variable 2.3 mph - N/A   Clear
3:00 PM 46.4 °F 44.3 °F 23.0 °F 40% 30.18 in - Variable 4.6 mph - N/A   Clear
4:00 PM 46.4 °F 43.5 °F 24.8 °F 43% 30.18 in - East 5.8 mph - N/A   Clear
5:00 PM 44.6 °F 40.2 °F 23.0 °F 43% 30.15 in - East 8.1 mph - N/A   Clear
6:00 PM 41.0 °F 37.1 °F 21.2 °F 45% 30.15 in - ENE 5.8 mph - N/A   Clear
7:00 PM 39.2 °F 35.0 °F 21.2 °F 49% 30.15 in - East 5.8 mph - N/A   Clear
8:00 PM 37.4 °F 33.8 °F 21.2 °F 52% 30.15 in - East 4.6 mph - N/A   Clear
9:00 PM 37.4 °F 34.9 °F 21.2 °F 52% 30.15 in - East 3.5 mph - N/A   Clear
10:00 PM 33.8 °F - 23.0 °F 65% 30.15 in - Calm Calm - N/A   Clear
11:00 PM 33.8 °F - 19.4 °F 56% 30.15 in - SE 2.3 mph - N/A   Clear